This is the latest recevied weather packets stored in our database for station/object N3TJJ-2. If no packets are shown the sender has not sent any weather packets the latest 10 day(s).
| Time | Temp. | Humidity | Pressure | Rain* | Wind** | Luminosity | Snow |
|---|---|---|---|---|---|---|---|
| 1777522993 | 8.33° C | 41% | 1009.2 hPa | 0 mm | - | - | - |
| 1777522630 | 8.33° C | 41% | 1009.2 hPa | 0 mm | - | - | - |
| 1777522269 | 8.33° C | 41% | 1009.3 hPa | 0.25 mm | - | - | - |
| 1777521936 | 8.33° C | 41% | 1009.6 hPa | 0.25 mm | - | - | - |
| 1777521550 | 8.33° C | 41% | 1009.9 hPa | 0.25 mm | - | - | - |
| 1777521221 | 8.33° C | 41% | 1010 hPa | 0.25 mm | - | - | - |
| 1777520830 | 8.33° C | 41% | 1010 hPa | 0.25 mm | - | - | - |
| 1777520487 | 8.33° C | 41% | 1010 hPa | 1.02 mm | - | - | - |
| 1777520114 | 8.33° C | 41% | 1009.9 hPa | 1.27 mm | - | - | - |
| 1777519765 | 8.33° C | 41% | 1009.4 hPa | 1.78 mm | - | - | - |
| 1777519402 | 8.33° C | 41% | 1008.9 hPa | 2.03 mm | - | - | - |
| 1777519030 | 8.33° C | 41% | 1008.9 hPa | 2.29 mm | - | - | - |
| 1777518670 | 8.33° C | 41% | 1009.5 hPa | 2.03 mm | - | - | - |
| 1777518314 | 7.78° C | 42% | 1010 hPa | 2.29 mm | - | - | - |
| 1777517959 | 7.78° C | 42% | 1010.4 hPa | 2.54 mm | - | - | - |
| 1777517594 | 7.78° C | 42% | 1010.6 hPa | 2.79 mm | - | - | - |
| 1777517230 | 7.78° C | 42% | 1010.8 hPa | 2.79 mm | - | - | - |
| 1777516869 | 7.78° C | 42% | 1010.7 hPa | 2.03 mm | - | - | - |
| 1777516513 | 7.78° C | 42% | 1011 hPa | 1.78 mm | - | - | - |
| 1777516150 | 7.78° C | 42% | 1010.8 hPa | 1.27 mm | - | - | - |
| 1777515803 | 7.78° C | 42% | 1010.5 hPa | 1.02 mm | - | - | - |
| 1777515430 | 7.78° C | 42% | 1009.7 hPa | 0.76 mm | - | - | - |
| 1777515088 | 7.78° C | 43% | 1009.5 hPa | 0.76 mm | - | - | - |
| 1777514724 | 7.78° C | 43% | 1009.7 hPa | 0.51 mm | - | - | - |
| 1777514351 | 7.78° C | 43% | 1009.4 hPa | 0.51 mm | - | - | - |
* Rain latest hour (hover to see other rain measurements)
** Current wind speed in m/s (hover to see current wind gust speed)